WD6AWP Weather Reports


time (UTC)temp
F
wind
direction
speed
knots
gust
knots
rain 1hr
in
rain 24hr
in
rain mn
in
humidity
%
barometer
mb
20260507170050 69 227 0.9 7.8 0.00 0.00 0.00 77 1016.5
20260507164550 69 240 1.7 7.8 0.00 0.00 0.00 77 1016.5
20260507163050 68 229 1.7 6.1 0.00 0.00 0.00 78 1016.5
20260507161546 68 240 2.6 6.1 0.00 0.00 0.00 79 1016.5
20260507160048 67 227 0.9 4.3 0.00 0.00 0.00 79 1016.5
20260507154542 67 218 0.0 1.7 0.00 0.00 0.00 80 1016.6
20260507153044 67 229 0.0 1.7 0.00 0.00 0.00 80 1016.6
20260507151535 65 340 0.0 0.0 0.00 0.00 0.00 84 1016.8
20260507150034 64 325 0.0 0.0 0.00 0.00 0.00 88 1016.7
20260507144534 63 304 0.0 0.0 0.00 0.00 0.00 93 1016.6
20260507143025 61 294 0.0 0.0 0.00 0.00 0.00 97 1016.5
20260507141523 59 289 0.0 0.0 0.00 0.00 0.00 98 1016.3
20260507140021 56 288 0.0 0.0 0.00 0.00 0.00 96 1016.2
20260507134520 55 288 0.0 0.0 0.00 0.00 0.00 96 1016.1
20260507133020 54 288 0.0 0.0 0.00 0.00 0.00 94 1015.9
20260507131518 54 288 0.0 0.0 0.00 0.00 0.00 95 1015.8
20260507130025 54 288 0.0 0.0 0.00 0.00 0.00 94 1015.7
20260507124522 54 288 0.0 0.0 0.00 0.00 0.00 94 1015.7
20260507123016 54 288 0.0 0.0 0.00 0.00 0.00 94 1015.6
20260507121514 54 288 0.0 0.0 0.00 0.00 0.00 94 1015.6
20260507120013 54 288 0.0 0.0 0.00 0.00 0.00 93 1015.7
20260507114512 55 288 0.0 0.0 0.00 0.00 0.00 93 1015.7
20260507113015 55 288 0.0 0.0 0.00 0.00 0.00 93 1015.8
20260507111513 55 288 0.0 0.0 0.00 0.00 0.00 93 1015.8
20260507110022 55 288 0.0 0.0 0.00 0.00 0.00 93 1016.0
20260507104506 55 288 0.0 0.0 0.00 0.00 0.00 92 1016.0
20260507103004 56 288 0.0 0.0 0.00 0.00 0.00 92 1016.1
20260507101503 56 288 0.0 0.0 0.00 0.00 0.00 92 1016.2
20260507100003 56 288 0.0 0.0 0.00 0.00 0.00 92 1016.2
20260507094559 57 288 0.0 0.0 0.00 0.00 0.00 92 1016.3
20260507093057 57 288 0.0 0.0 0.00 0.00 0.00 92 1016.3
20260507091555 57 288 0.0 0.0 0.00 0.00 0.00 92 1016.5
20260507090055 57 288 0.0 0.0 0.00 0.00 0.00 91 1016.7
20260507084551 58 288 0.0 0.0 0.00 0.00 0.00 91 1016.8
20260507083048 58 288 0.0 0.0 0.00 0.00 0.00 91 1016.9
20260507081546 58 288 0.0 0.0 0.00 0.00 0.00 91 1017.0
20260507080045 58 288 0.0 0.0 0.00 0.00 0.00 92 1017.1
20260507074556 59 288 0.0 0.0 0.00 0.00 0.00 92 1017.0
20260507073046 59 288 0.0 0.0 0.00 0.00 0.00 91 1017.0
20260507071541 59 288 0.0 0.0 0.00 0.00 0.00 91 1017.0
20260507070048 59 288 0.0 0.0 0.00 0.00 0.00 90 1017.2
20260507064538 60 288 0.0 0.0 0.00 0.00 0.00 90 1017.2
20260507063052 60 288 0.0 0.0 0.00 0.00 0.00 90 1017.3
20260507061537 60 288 0.0 0.0 0.00 0.00 0.00 89 1017.3
20260507060044 61 288 0.0 0.0 0.00 0.00 0.00 90 1017.3
20260507054542 61 288 0.0 6.1 0.00 0.00 0.00 89 1017.3
20260507053039 61 277 1.7 7.0 0.00 0.00 0.00 89 1017.3
20260507051536 61 278 2.6 7.0 0.00 0.00 0.00 89 1017.3
20260507050037 61 263 2.6 7.8 0.00 0.00 0.00 89 1017.2
20260507044534 61 272 2.6 7.8 0.00 0.00 0.00 89 1017.2
20260507043037 62 265 3.5 8.7 0.00 0.00 0.00 88 1017.1
20260507041533 62 276 1.7 7.0 0.00 0.00 0.00 87 1017.1
20260507040034 62 275 3.5 6.1 0.00 0.00 0.00 87 1016.9
20260507034537 62 277 1.7 7.0 0.00 0.00 0.00 86 1016.7
20260507033032 62 262 1.7 6.1 0.00 0.00 0.00 85 1016.6
20260507031530 62 288 2.6 8.7 0.00 0.00 0.00 85 1016.4
20260507030031 63 284 5.2 12.2 0.00 0.00 0.00 85 1016.3
20260507024530 63 267 5.2 9.6 0.00 0.00 0.00 84 1016.2
20260507023029 63 280 6.1 12.2 0.00 0.00 0.00 83 1016.0
20260507021530 64 281 7.0 13.0 0.00 0.00 0.00 82 1016.0
20260507020039 64 252 7.8 13.9 0.00 0.00 0.00 81 1015.8
20260507014528 64 269 9.6 13.9 0.00 0.00 0.00 82 1015.7
20260507013044 65 274 8.7 16.5 0.00 0.00 0.00 82 1015.7
20260507011526 66 286 7.0 15.6 0.00 0.00 0.00 82 1015.6
20260507010034 66 270 11.3 17.4 0.00 0.00 0.00 81 1015.6
20260507004525 66 277 11.3 20.0 0.00 0.00 0.00 80 1015.5
20260507003025 67 276 8.7 18.2 0.00 0.00 0.00 79 1015.6
20260507001529 68 259 9.6 17.4 0.00 0.00 0.00 78 1015.5
20260507000023 68 277 7.8 19.1 0.00 0.00 0.00 77 1015.5
20260506234529 68 265 10.4 16.5 0.00 0.00 0.00 76 1015.4
20260506233022 68 261 10.4 17.4 0.00 0.00 0.00 76 1015.5
20260506231519 69 281 12.2 16.5 0.00 0.00 0.00 74 1015.6
20260506230021 70 281 6.1 13.0 0.00 0.00 0.00 75 1015.8
20260506224517 70 304 8.7 14.8 0.00 0.00 0.00 74 1016.0
20260506223013 69 298 7.0 13.9 0.00 0.00 0.00 74 1016.2
20260506221511 70 269 8.7 14.8 0.00 0.00 0.00 72 1016.3
20260506220020 71 255 5.2 12.2 0.00 0.00 0.00 69 1016.6
20260506214509 72 257 6.1 14.8 0.00 0.00 0.00 65 1016.7
20260506213006 72 241 4.3 9.6 0.00 0.00 0.00 66 1016.8
20260506211502 72 225 5.2 12.2 0.00 0.00 0.00 63 1016.9
20260506210007 72 236 4.3 9.6 0.00 0.00 0.00 64 1017.1
20260506204601 71 234 5.2 9.6 0.00 0.00 0.00 64 1017.2
20260506203057 71 245 4.3 9.6 0.00 0.00 0.00 68 1017.3
20260506201554 70 223 5.2 10.4 0.00 0.00 0.00 71 1017.5
20260506200053 69 206 5.2 11.3 0.00 0.00 0.00 73 1017.6
20260506194554 70 219 5.2 10.4 0.00 0.00 0.00 73 1017.8
20260506193052 69 196 5.2 9.6 0.00 0.00 0.00 73 1017.9
20260506191551 70 226 5.2 8.7 0.00 0.00 0.00 72 1018.0
20260506190050 69 219 2.6 8.7 0.00 0.00 0.00 73 1018.2
20260506184549 69 165 4.3 9.6 0.00 0.00 0.00 74 1018.3
20260506183048 69 248 4.3 8.7 0.00 0.00 0.00 72 1018.5
20260506181546 69 225 4.3 8.7 0.00 0.00 0.00 73 1018.5
20260506180047 69 227 3.5 8.7 0.00 0.00 0.00 73 1018.5
20260506174547 69 164 3.5 8.7 0.00 0.00 0.00 73 1018.4
20260506173053 68 201 3.5 9.6 0.00 0.00 0.00 72 1018.4
20260506171551 68 175 3.5 10.4 0.00 0.00 0.00 73 1018.3